Weather History for Philadelphia, PA

Change the Weather History Date:

Monday, March 31, 2014

  Actual Average Record
Temperature  
Mean Temperature 49 °F 48 °F  
Max Temperature 60 °F 58 °F 81 °F (1979)
Min Temperature 37 °F 39 °F 21 °F (1923)
Degree Days  
Heating Degree Days 16 17  
Month to date heating degree days 801 667  
Since 1 July heating degree days 4457 4147  
Cooling Degree Days 0 0  
Month to date cooling degree days 0 1  
Year to date cooling degree days 0 1  
Moisture  
Dew Point 30 °F    
Average Humidity 53    
Maximum Humidity 76    
Minimum Humidity 30    
Precipitation  
Precipitation 0.01 in 0.13 in 1.57 in (1980)
Month to date precipitation 4.23 3.79  
Year to date precipitation 12.90 9.47  
Snow  
Snow 0.00 in 0.00 in 2.50 in (1890)
Month to date snowfall 8.5 2.9  
Since 1 July snowfall 68.0 21.9  
Snow Depth 0.00 in    
Sea Level Pressure  
Sea Level Pressure 29.92 in    
Wind  
Wind Speed 17 mph (NNW)    
Max Wind Speed 29 mph    
Max Gust Speed 35 mph    
Visibility 10 miles    
Events Rain    
T = Trace of Precipitation, MM = Missing Value Source: NWS Daily Summary

Daily Weather History Graph

Daily Weather History Graph

Search for Another Location

Airport:

Trip Planner

Search our weather history database for the weather conditions in past years. The results will help you decide how hot, cold, wet, or windy it might be!

Date:

Astronomy

Mar. 31, 2014 Rise Set
Actual Time 6:46 AM EDT 7:24 PM EDT
Civil Twilight 6:19 AM EDT 7:51 PM EDT
Nautical Twilight 5:47 AM EDT 8:23 PM EDT
Astronomical Twilight 5:14 AM EDT 8:56 PM EDT
Moon 7:08 AM EDT (3/31) 8:40 PM EDT (3/31)
Length of Visible Light 13h 31m
Length of Day
12h 37m
New Moon, 1% of the Moon is Illuminated
Mar 31
New Moon
Apr 7
First Quarter
Apr 15
Full
Apr 22
Last Quarter
Apr 29
New

Hourly Weather History & Observations

Time (EDT) Temp. Windchill Dew Point Humidity Pressure Visibility Wind Dir Wind Speed Gust Speed Precip Events Conditions
12:54 AM 37.9 °F 29.2 °F 30.9 °F 76% 29.75 in 10.0 mi NNW 15.0 mph 25.3 mph 0.01 in Rain Light Rain
1:54 AM 39.0 °F 28.3 °F 30.0 °F 70% 29.77 in 10.0 mi NNW 24.2 mph 28.8 mph 0.00 in Rain Light Rain
2:54 AM 37.9 °F 27.9 °F 30.0 °F 73% 29.78 in 10.0 mi NNW 19.6 mph 25.3 mph 0.00 in Rain Light Rain
3:54 AM 37.9 °F 27.6 °F 30.0 °F 73% 29.81 in 10.0 mi NNW 20.7 mph 27.6 mph 0.00 in   Overcast
4:51 AM 37.4 °F 28.5 °F 30.2 °F 75% 29.82 in 10.0 mi NNW 15.0 mph - N/A   Overcast
4:54 AM 37.0 °F 27.0 °F 30.0 °F 76% 29.83 in 10.0 mi NNW 18.4 mph - N/A   Overcast
5:33 AM 37.9 °F 28.2 °F 30.9 °F 76% 29.84 in 10.0 mi NNW 18.4 mph - 0.00 in   Overcast
5:54 AM 37.9 °F 28.5 °F 30.0 °F 73% 29.84 in 10.0 mi NNW 17.3 mph 25.3 mph 0.00 in   Overcast
6:42 AM 37.0 °F 28.9 °F 30.9 °F 79% 29.88 in 10.0 mi NNW 12.7 mph - 0.00 in Rain Light Rain
6:54 AM 37.0 °F 28.9 °F 30.9 °F 79% 29.89 in 10.0 mi NNW 12.7 mph 20.7 mph 0.01 in Rain Light Rain
7:54 AM 37.9 °F 28.2 °F 30.0 °F 73% 29.90 in 10.0 mi NNW 18.4 mph - 0.00 in   Mostly Cloudy
8:54 AM 39.0 °F 30.6 °F 28.9 °F 67% 29.94 in 10.0 mi NNW 15.0 mph 24.2 mph N/A   Overcast
9:54 AM 42.1 °F 33.6 °F 30.9 °F 65% 29.95 in 10.0 mi NNW 18.4 mph 29.9 mph N/A   Mostly Cloudy
10:22 AM 42.1 °F 33.3 °F 30.0 °F 62% 29.96 in 10.0 mi North 19.6 mph 27.6 mph N/A   Mostly Cloudy
10:54 AM 44.1 °F 35.7 °F 30.0 °F 58% 29.97 in 10.0 mi NNW 20.7 mph 25.3 mph N/A   Mostly Cloudy
11:54 AM 48.0 °F - 32.0 °F 54% 29.96 in 10.0 mi NNW 19.6 mph - N/A   Scattered Clouds
12:54 PM 51.1 °F - 32.0 °F 48% 29.97 in 10.0 mi North 16.1 mph - N/A   Scattered Clouds
1:54 PM 54.0 °F - 33.1 °F 45% 29.96 in 10.0 mi NNW 18.4 mph - N/A   Scattered Clouds
2:54 PM 55.0 °F - 30.9 °F 40% 29.95 in 10.0 mi NNW 23.0 mph 31.1 mph N/A   Scattered Clouds
3:54 PM 57.9 °F - 32.0 °F 37% 29.95 in 10.0 mi NNW 17.3 mph 29.9 mph N/A   Partly Cloudy
4:54 PM 59.0 °F - 30.0 °F 33% 29.95 in 10.0 mi NNW 20.7 mph 26.5 mph N/A   Partly Cloudy
5:54 PM 57.9 °F - 27.0 °F 31% 29.96 in 10.0 mi North 19.6 mph 26.5 mph N/A   Partly Cloudy
6:54 PM 57.0 °F - 27.0 °F 32% 29.98 in 10.0 mi North 19.6 mph 26.5 mph N/A   Partly Cloudy
7:54 PM 54.0 °F - 28.0 °F 37% 30.00 in 10.0 mi North 11.5 mph - N/A   Partly Cloudy
8:54 PM 53.1 °F - 26.1 °F 35% 30.04 in 10.0 mi North 12.7 mph 27.6 mph N/A   Partly Cloudy
9:54 PM 51.1 °F - 28.0 °F 41% 30.06 in 10.0 mi NNW 13.8 mph - N/A   Partly Cloudy
10:54 PM 48.9 °F - 28.0 °F 44% 30.08 in 10.0 mi NNW 15.0 mph - N/A   Clear
11:54 PM 46.9 °F - 28.9 °F 50% 30.10 in 10.0 mi North 11.5 mph - N/A   Clear